DW2802 Ogijares ES current weather conditions

sailwx.info

Wind from 253 at 7 knots gusting 13

Air temperature 27.2° C
Dewpoint 9.1° C

Last reported at 2015-May-30 13:48 UTC.
Time now 2015-May-30 14:29 UTC

Location: N 37°07' W 003°36'.
View on Google Maps.

See reports from other nearby stations

  
Tides and Currents Weather Stations Pressure Air Temp Water Temp Dewpoint Dewpoint Depression Visibility Wind Speed Wind Dir Waves Ship Positions
date/time (UTC)wind fromknots sea level pressurealtimeterstation pressurevisibilityair tempwater tempwave heightnotes
2015-May-30 13:48 253 7 gusting 13 27.2
2015-May-30 13:33 005 2 gusting 10 27.2
2015-May-30 13:18 355 2 gusting 8 27.2
2015-May-30 13:03 327 26.7
2015-May-30 12:48 345 3 gusting 11 26.7
2015-May-30 12:33 019 5 gusting 13 26.1
2015-May-30 12:18 336 6 gusting 11 26.1
2015-May-30 12:03 360 6 gusting 13 25.6
2015-May-30 11:48 273 2 gusting 7 25.0
2015-May-30 11:33 299 6 gusting 10 25.0
2015-May-30 11:18 327 1 gusting 8 23.9
2015-May-30 11:03 347 23.9
2015-May-30 10:48 308 1 gusting 6 23.3
2015-May-30 10:33 275 22.8
2015-May-30 10:18 346 1 gusting 7 22.8
2015-May-30 10:03 281 22.8
2015-May-30 09:48 340 21.7
2015-May-30 09:32 360 22.2
2015-May-30 09:17 360 21.1
2015-May-30 09:02 360 19.4
2015-May-30 08:47 333 18.9
2015-May-30 08:33 333 18.3
2015-May-30 08:17 333 17.2
2015-May-30 08:02 333 17.2
2015-May-30 07:47 333 16.7
2015-May-30 07:32 333 16.7
2015-May-30 07:17 333 16.7
2015-May-30 07:02 333 16.7
2015-May-30 06:47 333 16.1
2015-May-30 06:32 333 16.1
2015-May-30 06:17 337 15.6
2015-May-30 06:02 337 15.6
2015-May-30 05:47 331 3 gusting 12 15.6
2015-May-30 05:32 191 15.0
2015-May-30 05:17 191 15.0
2015-May-30 05:02 191 14.4
2015-May-30 04:47 192 14.4
2015-May-30 04:32 192 14.4
2015-May-30 04:17 192 14.4
2015-May-30 04:02 192 14.4
2015-May-30 03:46 192 14.4
2015-May-30 03:32 192 14.4
2015-May-30 03:16 192 14.4
2015-May-30 03:01 192 14.4
2015-May-30 02:49 192 15.0
2015-May-30 02:31 192 15.0
2015-May-30 02:16 192 14.4
2015-May-30 02:01 192 14.4
2015-May-30 01:46 192 15.0
2015-May-30 01:31 192 15.0
2015-May-30 01:16 192 15.6
2015-May-30 01:01 192 15.6
2015-May-30 00:46 192 16.1
2015-May-30 00:31 250 16.7
2015-May-30 00:16 250 17.2
2015-May-30 00:01 250 17.2
2015-May-29 23:46 250 17.8
2015-May-29 23:31 252 17.8
2015-May-29 23:16 261 17.8
2015-May-29 23:01 261 18.3
2015-May-29 22:46 262 17.8
2015-May-29 22:31 262 17.8
2015-May-29 22:16 221 17.2
2015-May-29 22:01 224 17.2
2015-May-29 21:46 287 17.2
2015-May-29 21:32 296 17.8
2015-May-29 21:16 296 18.3
2015-May-29 21:01 296 18.9
2015-May-29 20:46 196 18.9
2015-May-29 20:31 195 18.3
2015-May-29 20:16 242 18.9
2015-May-29 20:01 010 19.4
2015-May-29 19:46 009 20.6
2015-May-29 19:31 009 21.1
2015-May-29 19:16 021 21.7
2015-May-29 19:01 021 21.7
2015-May-29 18:46 021 2 gusting 7 21.7
2015-May-29 18:31 032 4 gusting 9 22.2
2015-May-29 18:16 030 6 gusting 11 23.3
2015-May-29 18:01 065 4 gusting 10 22.8
2015-May-29 17:46 114 6 gusting 16 21.7
2015-May-29 17:31 061 4 gusting 12 20.0
2015-May-29 17:16 059 10 gusting 17 19.4
2015-May-29 17:01 057 4 gusting 8 19.4
2015-May-29 16:46 058 6 gusting 9 19.4
2015-May-29 16:31 049 3 gusting 13 20.0
2015-May-29 16:16 038 7 gusting 13 21.1
2015-May-29 16:01 064 6 gusting 13 21.7
2015-May-29 15:46 068 4 gusting 13 21.1
2015-May-29 15:31 136 5 gusting 11 21.1
2015-May-29 15:16 083 4 gusting 16 21.7
2015-May-29 15:00 065 8 gusting 16 21.7
2015-May-29 14:45 244 0 gusting 8 23.3
2015-May-29 14:30 259 0 gusting 7 23.9
2015-May-29 14:15 281 5 gusting 12 24.4
2015-May-29 14:00 254 8 gusting 14 25.0
2015-May-29 13:46 277 7 gusting 14 26.1
2015-May-29 13:30 294 6 gusting 13 26.1
2015-May-29 13:17 294 6 gusting 12 26.7
2015-May-29 13:00 328 3 gusting 11 26.7
2015-May-29 12:45 205 25.6
2015-May-29 12:30 328 25.6
2015-May-29 12:17 336 25.0
2015-May-29 12:00 327 1 gusting 9 25.0
2015-May-29 11:45 296 5 gusting 8 24.4
2015-May-29 11:30 298 1 gusting 10 23.9
2015-May-29 11:17 262 23.9
2015-May-29 11:00 283 23.3
2015-May-29 10:45 257 23.3
2015-May-29 10:30 256 22.8
2015-May-29 10:15 256 22.2
2015-May-29 10:00 253 21.7
2015-May-29 09:45 247 21.7
2015-May-29 09:30 214 21.7
2015-May-29 09:15 214 21.7
2015-May-29 09:00 213 21.7
2015-May-29 08:45 211 21.1
2015-May-29 08:30 211 20.6
2015-May-29 08:14 207 19.4
2015-May-29 07:59 207 19.4
2015-May-29 07:44 207 18.3
2015-May-29 07:31 207 17.8
2015-May-29 07:16 207 17.2
2015-May-29 06:59 207 16.7
2015-May-29 06:44 207 16.1
2015-May-29 06:29 207 15.6
2015-May-29 06:14 207 15.0
2015-May-29 05:59 207 14.4
2015-May-29 05:44 207 14.4
2015-May-29 05:29 207 14.4
2015-May-29 05:14 208 14.4
2015-May-29 04:59 208 14.4
2015-May-29 04:44 208 15.0
2015-May-29 04:29 208 15.0
2015-May-29 04:14 208 1 gusting 5 15.0
2015-May-29 03:59 211 15.0
2015-May-29 03:44 211 15.0
2015-May-29 03:29 211 15.6
2015-May-29 03:14 211 15.6
2015-May-29 02:59 211 15.6
2015-May-29 02:44 211 15.6
2015-May-29 02:29 211 15.6
2015-May-29 02:14 211 16.1
2015-May-29 01:59 211 16.1
2015-May-29 01:44 211 16.1
2015-May-29 01:29 209 16.7
2015-May-29 01:14 212 17.2
2015-May-29 00:59 212 17.2
2015-May-29 00:44 212 17.2
2015-May-29 00:13 340 17.2
2015-May-28 23:58 341 17.8
2015-May-28 23:43 341 17.8
2015-May-28 23:28 340 2 gusting 6 17.8
2015-May-28 23:13 346 1 gusting 5 17.8
2015-May-28 22:58 023 1 gusting 6 17.8
2015-May-28 22:43 035 6 gusting 9 18.3
2015-May-28 22:28 053 9 gusting 14 18.9
2015-May-28 22:13 114 6 gusting 16 18.9
2015-May-28 21:58 124 10 gusting 20 18.3
2015-May-28 21:43 135 10 gusting 26 18.3
2015-May-28 21:28 139 10 gusting 25 18.3
2015-May-28 21:13 148 14 gusting 25 18.9
2015-May-28 20:58 156 10 gusting 20 21.1
2015-May-28 20:43 174 8 gusting 26 21.7
2015-May-28 20:28 145 12 gusting 25 21.7
2015-May-28 20:13 159 8 gusting 18 22.2
2015-May-28 19:58 166 7 gusting 13 23.3
2015-May-28 19:43 155 6 gusting 10 23.9
2015-May-28 19:28 149 5 gusting 8 23.9
2015-May-28 19:13 143 3 gusting 9 24.4
2015-May-28 18:58 117 4 gusting 8 25.0
2015-May-28 18:43 139 3 gusting 7 26.1
2015-May-28 18:28 171 2 gusting 8 26.1
2015-May-28 18:13 207 1 gusting 6 27.2
2015-May-28 17:58 214 6 gusting 8 27.2
2015-May-28 17:43 168 0 gusting 8 27.2
2015-May-28 17:28 174 5 gusting 8 27.2
2015-May-28 17:13 156 6 gusting 13 26.7
2015-May-28 16:58 164 5 gusting 14 27.2
2015-May-28 16:43 193 6 gusting 11 27.8
2015-May-28 16:28 167 5 gusting 11 27.8
2015-May-28 16:13 215 4 gusting 9 27.8
2015-May-28 15:58 221 4 gusting 11 27.8
2015-May-28 15:43 108 28.3
2015-May-28 15:28 173 27.2
2015-May-28 15:13 173 3 gusting 8 27.2
2015-May-28 14:58 206 3 gusting 6 27.2
2015-May-28 14:43 141 0 gusting 5 27.2
2015-May-28 14:28 143 0 gusting 8 26.1
2015-May-28 14:13 161 1 gusting 6 25.6